Hourly Weather Roundup
Issued by NWS Central Illinois

Home | Current Version | Previous Version | Text Only | Print | Product List | Glossary On
Versions: 1 2 3 4 5 6 7 8 9 10 11 12 13 14 15 16 17 18 19 20 21 22 23 24 25 26 27 28 29 30 31 32 33 34 35 36 37 38 39 40 41 42 43 44 45 46 47 48 49 50
000
NZUS43 KILX 132110
HWRILX

AREA WEATHER ROUNDUP
NATIONAL WEATHER SERVICE, LINCOLN IL
300 PM CST SAT FEB 13 2016


CITY           SKY/WX    TMP DP  RH WIND       PRES   REMARKS
BLOOMINGTON    SUNNY     19  -3  38 W5        30.54F WCI  12
CHAMPAIGN      SUNNY     20  -1  40 N8        30.54F WCI  10
DANVILLE       SUNNY     17   1  49 NW8       30.52S WCI   7
DECATUR        SUNNY     21   0  39 N7        30.55F WCI  12
EFFINGHAM      SUNNY     21   5  50 NW6       30.57F WCI  14
FLORA          SUNNY     24   1  36 NE7       30.57F WCI  16
GALESBURG      CLOUDY    18  -5  35 W3        30.54F
JACKSONVILLE   SUNNY     22   2  43 CALM      30.55F
LACON          SUNNY     19  -7  31 W5        30.56S WCI  12
LAWRENCEVILLE  SUNNY     23  -4  30 N10       30.57S WCI  12
LITCHFIELD     SUNNY     19   0  44 N6        30.54F WCI  11
$$


CITY           SKY/WX    TMP DP  RH WIND       PRES   REMARKS
LINCOLN        SUNNY     20  -1  38 CALM      30.56F
MACOMB         CLOUDY    20  -2  37 N5        30.57F WCI  14
MATTOON        SUNNY     20   1  43 N7        30.54F WCI  11
MT CARMEL AP   SUNNY     23  -4  30 NW10      30.56F WCI  12
OLNEY-NOBLE AP SUNNY     23   1  39 N8        30.57F WCI  14
PARIS          SUNNY     20   3  47 NW8       30.55F WCI  10
PEORIA         CLOUDY    20  -6  31 N6        30.56F WCI  12
PONTIAC        SUNNY     19  -2  39 NW6       30.56S WCI  11
RANTOUL        SUNNY     20   1  42 NW10      30.54S WCI   9
ROBINSON       MOSUNNY   20  -2  37 NW6       30.58S WCI  13
SPRINGFIELD    SUNNY     21  -1  38 VRB3      30.56F
TAYLORVILLE    SUNNY     19   3  49 N5        30.56F WCI  13
$$

...REGIONAL REPORTS...


CITY           SKY/WX    TMP DP  RH WIND       PRES   REMARKS
CHICAGO O`HARE MOSUNNY   17  -5  37 NW9       30.53S WCI   6
KANKAKEE       SUNNY     19  -3  39 NW6       30.55S WCI  10
MOLINE         CLOUDY    19  -6  33 SW6       30.55F WCI  11
MOUNT STERLING CLOUDY    18  -1  45 CALM      30.54F
MOUNT VERNON   SUNNY     23   3  42 CALM      30.56F
PITTSFIELD     CLOUDY    19   2  47 CALM      30.56S
QUINCY         CLOUDY    17  -2  43 NE3       30.54F
ROCKFORD       MOSUNNY   16  -7  35 VRB5      30.55F WCI   9
$$


CITY           SKY/WX    TMP DP  RH WIND       PRES   REMARKS
BURLINGTON     CLOUDY    18  -4  37 VRB5      30.53F WCI  11
CEDAR RAPIDS   PTSUNNY   16  -2  45 VRB3      30.52F
DES MOINES     CLOUDY    14  -2  49 SE9       30.49F WCI   2
KIRKSVILLE     CLOUDY    17   0  47 SE7       30.51F WCI   8
OTTUMWA        CLOUDY    15   0  51 SE5       30.52F WCI   8
ST LOUIS       CLOUDY    23  -1  35 CALM      30.55F
$$


CITY           SKY/WX    TMP DP  RH WIND       PRES   REMARKS
TERRE HAUTE    SUNNY     20  -2  38 N9        30.55F WCI   9
EVANSVILLE     SUNNY     26   0  32 NE7       30.56F WCI  18
INDIANAPOLIS   MOSUNNY   19  -6  33 NW3       30.50F
LAFAYETTE      SUNNY     18  -5  36 NW12G21   30.53F WCI   5
MADISON        MOSUNNY   10  -8  44 VRB6      30.52F WCI   0
MILWAUKEE      MOSUNNY   12  -9  38 NW12      30.52F WCI  -2
$$





USA.gov is the U.S. government's official web portal to all federal, state and local government web resources and services.